| time (UTC) | temp F | wind direction | speed MPH | gust MPH | rain 1hr in | rain 24hr in | rain mn in | humidity % | barometer mb |
| 20260503233044 | 53 | 202 | 3.0 | 7.0 | 0.00 | 0.00 | 0.00 | 59 | 1008.0 |
| 20260503231541 | 53 | 256 | 1.0 | 6.0 | 0.00 | 0.00 | 0.00 | 61 | 1008.1 |
| 20260503230039 | 53 | 272 | 2.0 | 7.0 | 0.00 | 0.00 | 0.00 | 63 | 1008.1 |
| 20260503224538 | 52 | 250 | 2.0 | 4.0 | 0.00 | 0.00 | 0.00 | 67 | 1008.2 |
| 20260503223039 | 52 | 257 | 2.0 | 5.0 | 0.00 | 0.00 | 0.00 | 66 | 1008.4 |
| 20260503221541 | 53 | 245 | 3.0 | 10.0 | 0.00 | 0.00 | 0.00 | 66 | 1008.4 |
| 20260503220028 | 53 | 229 | 3.0 | 9.0 | 0.00 | 0.00 | 0.00 | 63 | 1008.4 |
| 20260503214526 | 53 | 266 | 4.0 | 13.0 | 0.00 | 0.00 | 0.00 | 61 | 1008.2 |
| 20260503213021 | 53 | 216 | 5.0 | 14.0 | 0.00 | 0.00 | 0.00 | 61 | 1007.8 |
| 20260503211516 | 53 | 212 | 7.0 | 14.0 | 0.00 | 0.00 | 0.00 | 60 | 1007.7 |
| 20260503210010 | 52 | 240 | 5.0 | 20.0 | 0.00 | 0.00 | 0.00 | 60 | 1007.7 |
| 20260503204508 | 51 | 268 | 5.0 | 13.0 | 0.00 | 0.00 | 0.00 | 61 | 1007.8 |
| 20260503203018 | 52 | 226 | 6.0 | 11.0 | 0.00 | 0.00 | 0.00 | 60 | 1008.0 |
| 20260503201503 | 52 | 257 | 6.0 | 16.0 | 0.00 | 0.00 | 0.00 | 59 | 1008.2 |
| 20260503200002 | 53 | 257 | 5.0 | 14.0 | 0.00 | 0.00 | 0.00 | 57 | 1008.4 |
| 20260503194600 | 53 | 245 | 5.0 | 17.0 | 0.00 | 0.00 | 0.00 | 58 | 1008.6 |
| 20260503193057 | 53 | 224 | 5.0 | 14.0 | 0.00 | 0.00 | 0.00 | 57 | 1008.9 |
| 20260503191552 | 54 | 204 | 6.0 | 18.0 | 0.00 | 0.00 | 0.00 | 54 | 1009.1 |
| 20260503190049 | 54 | 246 | 7.0 | 14.0 | 0.00 | 0.00 | 0.00 | 55 | 1009.3 |
| 20260503184545 | 53 | 212 | 7.0 | 19.0 | 0.00 | 0.00 | 0.00 | 53 | 1009.6 |
| 20260503183045 | 52 | 237 | 9.0 | 17.0 | 0.00 | 0.00 | 0.00 | 53 | 1009.8 |
| 20260503181539 | 52 | 246 | 6.0 | 14.0 | 0.00 | 0.00 | 0.00 | 50 | 1010.0 |
| 20260503180040 | 52 | 226 | 10.0 | 27.0 | 0.00 | 0.00 | 0.00 | 45 | 1010.3 |
| 20260503174535 | 52 | 214 | 13.0 | 20.0 | 0.00 | 0.00 | 0.00 | 48 | 1010.4 |
| 20260503173047 | 52 | 203 | 7.0 | 20.0 | 0.00 | 0.00 | 0.00 | 54 | 1010.7 |
| 20260503171534 | 51 | 229 | 6.0 | 15.0 | 0.00 | 0.00 | 0.00 | 60 | 1011.0 |
| 20260503081535 | 0 | 0.0 | 0.0 | 0.00 | 0.00 | 0.00 | 1013.2 | ||
| 20260503071514 | 0 | 0.0 | 0.0 | 0.00 | 0.00 | 0.00 | 1013.1 | ||
| 20260503060104 | 0 | 0.0 | 0.0 | 0.00 | 0.00 | 0.00 | 1013.4 | ||
| 20260503054546 | 0 | 0.0 | 0.0 | 0.00 | 0.00 | 0.00 | 1013.4 | ||
| 20260503053042 | 0 | 0.0 | 0.0 | 0.00 | 0.00 | 0.00 | 1013.5 | ||
| 20260503051535 | 0 | 0.0 | 0.0 | 0.00 | 0.00 | 0.00 | 1013.6 | ||
| 20260503050002 | 0 | 0.0 | 0.0 | 0.00 | 0.00 | 0.00 | 1013.7 | ||
| 20260503044606 | 0 | 0.0 | 0.0 | 0.00 | 0.00 | 0.00 | 1013.7 | ||
| 20260503043056 | 0 | 0.0 | 0.0 | 0.00 | 0.00 | 0.00 | 1013.7 | ||
| 20260503041546 | 37 | 212 | 0.0 | 1.0 | 0.00 | 0.00 | 0.00 | 79 | 1014.0 |
| 20260503040041 | 38 | 207 | 0.0 | 2.0 | 0.00 | 0.00 | 0.00 | 79 | 1014.0 |
| 20260503034540 | 38 | 212 | 0.0 | 2.0 | 0.00 | 0.00 | 0.00 | 80 | 1014.0 |
| 20260503033051 | 39 | 217 | 1.0 | 3.0 | 0.00 | 0.00 | 0.00 | 80 | 1014.1 |
| 20260503031536 | 39 | 210 | 1.0 | 3.0 | 0.00 | 0.00 | 0.00 | 79 | 1014.1 |
| 20260503030030 | 40 | 225 | 1.0 | 3.0 | 0.00 | 0.00 | 0.00 | 77 | 1014.1 |
| 20260503024529 | 40 | 224 | 1.0 | 3.0 | 0.00 | 0.00 | 0.00 | 76 | 1014.2 |
| 20260503023041 | 40 | 212 | 1.0 | 3.0 | 0.00 | 0.00 | 0.00 | 74 | 1014.3 |
| 20260503021524 | 40 | 212 | 0.0 | 4.0 | 0.00 | 0.00 | 0.00 | 72 | 1014.4 |
| 20260503020023 | 41 | 198 | 1.0 | 3.0 | 0.00 | 0.00 | 0.00 | 70 | 1014.5 |
| 20260503014521 | 41 | 211 | 0.0 | 3.0 | 0.00 | 0.00 | 0.00 | 70 | 1014.4 |
| 20260503013018 | 41 | 223 | 1.0 | 3.0 | 0.00 | 0.00 | 0.00 | 69 | 1014.5 |
| 20260503011516 | 41 | 234 | 2.0 | 4.0 | 0.00 | 0.00 | 0.00 | 69 | 1014.4 |
| 20260503010021 | 41 | 236 | 1.0 | 2.0 | 0.00 | 0.00 | 0.00 | 67 | 1014.4 |
| 20260503004512 | 41 | 244 | 0.0 | 4.0 | 0.00 | 0.00 | 0.00 | 66 | 1014.3 |
| 20260503003011 | 41 | 231 | 1.0 | 4.0 | 0.00 | 0.00 | 0.00 | 72 | 1014.3 |
| 20260503001601 | 42 | 245 | 1.0 | 5.0 | 0.00 | 0.00 | 0.00 | 70 | 1014.2 |
| 20260503000110 | 42 | 218 | 2.0 | 4.0 | 0.00 | 0.00 | 0.00 | 69 | 1014.0 |
| 20260502234555 | 42 | 228 | 1.0 | 6.0 | 0.00 | 0.00 | 0.00 | 70 | 1013.9 |